Theta_e
287 288 288 287 286 285 285 285 285 285 285 286 289 291 291 291 293 294 294 295 295 295 295 294 294 294 295 295 295 296 296 296 293 292 292 290 290 289 289 289 288 286 285
286 286 286 286 285 285 284 284 284 285 284 284 284 285 287 290 291 291 292 293 294 294 294 294 293 293 294 294 294 294 294 294 296 289 290 289 290 289 289 288 288 286 285
286 285 285 285 285 285 284 283 283 283 284 284 284 284 284 284 287 290 290 290 291 292 293 292 292 292 292 292 292 292 292 292 293 294 289 289 288 288 288 287 287 285 284
286 285 285 284 284 283 283 283 282 282 282 283 283 283 283 284 284 284 286 289 289 289 290 291 291 291 291 291 291 291 291 290 291 291 290 287 288 287 286 284 283 284 283
286 285 285 284 284 284 284 283 282 282 281 282 281 282 282 283 283 284 285 285 288 289 288 289 289 290 290 290 290 290 289 289 289 290 289 285 285 284 284 283 283 282 282
286 285 284 284 284 283 283 282 282 281 281 281 280 281 281 281 282 284 286 286 287 287 287 288 288 288 288 289 289 290 289 289 290 289 290 287 285 285 285 283 283 282 282
285 285 284 283 283 282 282 282 281 280 280 279 279 280 280 280 282 283 284 285 286 286 286 286 287 287 287 287 287 288 289 289 289 289 289 289 286 284 284 283 283 284 285
283 283 283 283 282 282 282 281 280 280 279 278 278 278 278 278 280 281 282 284 284 285 285 286 286 287 287 287 287 286 287 288 289 289 289 289 288 285 285 285 285 284 284
281 281 281 280 280 280 279 279 279 279 278 277 277 276 276 277 277 279 280 281 283 283 284 285 285 286 286 287 287 286 286 286 286 288 289 289 288 288 285 284 283 283 281
278 277 277 276 276 276 276 276 277 277 277 276 276 275 275 274 275 276 277 279 281 282 283 284 285 285 286 287 287 287 286 286 285 286 287 288 289 288 286 284 284 284 284
274 272 271 271 270 270 270 270 271 271 272 272 273 272 272 272 272 273 275 277 279 281 282 283 284 285 286 287 287 287 287 286 285 286 286 286 287 287 286 284 285 285 284
269 268 267 266 265 266 266 266 266 267 268 269 269 270 270 271 271 272 274 276 277 280 281 283 283 284 285 286 287 288 288 287 285 285 285 285 285 285 285 284 283 284 284
266 265 264 264 264 264 264 264 264 264 265 266 267 267 268 268 269 270 272 274 276 278 280 283 284 284 285 285 286 287 288 288 286 285 285 284 284 284 283 282 282 282 282
264 263 263 263 263 263 263 264 264 264 264 264 265 265 265 266 266 267 268 270 271 274 279 281 283 283 283 284 285 287 288 287 286 285 284 284 283 282 282 281 280 279 278
263 263 263 263 263 263 263 263 264 264 265 266 267 267 268 268 268 269 270 271 271 272 275 278 281 281 281 282 284 286 286 286 285 285 284 283 281 281 281 280 279 278 278
262 263 262 262 262 262 262 263 264 265 266 267 268 269 269 270 270 271 271 272 272 273 275 276 278 280 281 282 284 284 284 285 285 284 283 282 281 281 279 278 277 277 277
262 262 262 262 262 262 263 263 263 264 265 266 267 268 269 269 270 270 271 272 272 274 275 276 277 278 281 282 283 283 283 283 284 284 282 282 279 278 276 276 275 276 275
262 262 261 261 262 262 263 264 264 265 265 265 266 267 268 270 270 271 272 272 272 273 274 276 276 278 280 282 282 282 282 282 283 282 281 278 278 276 276 276 275 275 275
262 262 262 262 262 263 264 265 265 265 266 266 267 267 268 269 270 271 272 273 273 273 273 274 277 278 280 282 282 282 282 281 280 279 278 277 277 276 276 275 275 274 274
261 262 262 262 263 263 264 265 265 266 267 268 268 268 270 269 269 270 271 272 273 273 274 276 279 281 282 282 281 282 280 279 278 277 276 276 275 275 274 274 273 273 273
261 261 261 262 262 263 264 265 265 266 266 267 267 267 269 268 267 268 269 270 271 272 277 278 280 282 282 281 280 279 278 277 276 275 275 274 274 273 273 272 272 272 271
261 260 261 261 262 262 263 264 264 265 265 265 265 265 266 265 265 266 266 267 267 268 272 276 278 278 278 277 277 276 275 274 273 273 273 272 272 272 271 270 270 270 270
261 260 260 260 261 261 262 263 263 263 264 264 264 264 264 264 263 264 264 265 266 268 270 271 271 272 273 274 274 274 272 271 271 271 271 271 270 270 270 270 270 269 269
261 260 260 260 260 261 261 262 262 263 263 263 263 263 263 263 263 263 263 263 264 265 266 268 269 270 271 271 272 272 271 271 271 270 270 270 269 269 269 269 268 268 268
260 260 260 260 260 260 260 260 261 262 262 263 263 263 263 263 263 262 262 262 262 263 264 265 266 267 268 269 269 269 269 269 269 269 269 269 268 268 268 268 268 268 268
260 260 259 259 259 259 260 260 260 260 260 261 261 261 261 261 262 262 262 263 263 263 264 264 265 265 265 265 266 267 267 268 268 268 268 268 268 267 268 267 267 267 267
Wind_Speed
13 11 12 14 17 20 24 24 25 24 23 21 20 20 19 18 19 22 25 28 33 34 36 37 40 42 45 45 41 44 41 33 10 14 30 33 32 40 41 39 35 36 32
12 11 10 11 15 17 20 19 21 23 24 23 22 19 19 19 18 19 25 26 29 34 36 37 40 39 42 42 43 44 41 43 32 11 26 30 33 40 42 42 40 39 36
16 17 17 15 16 14 18 18 19 19 20 22 23 25 25 22 20 19 20 26 28 32 35 38 38 37 40 36 38 39 41 39 44 30 17 28 28 38 41 38 40 39 36
22 26 27 25 26 25 25 27 27 25 25 25 26 26 26 26 24 23 22 24 26 30 35 38 39 38 39 36 38 39 35 34 36 35 26 25 29 33 37 35 33 40 41
20 25 29 30 33 34 35 35 35 32 30 30 31 31 28 29 29 26 25 25 26 29 32 34 38 39 38 40 38 36 34 33 30 32 26 16 24 22 34 29 29 28 33
23 28 30 32 36 36 36 35 34 34 33 32 35 31 33 33 31 26 25 28 30 31 31 33 33 35 37 39 42 44 39 37 35 32 30 26 30 33 35 32 29 18 10
25 30 31 33 35 37 37 36 33 33 33 31 30 31 33 32 30 31 30 31 32 31 32 30 31 32 33 31 36 43 45 45 47 41 35 38 31 39 39 35 35 31 25
25 27 28 29 32 33 33 34 36 33 32 32 33 32 33 37 33 32 33 33 35 35 35 36 35 35 34 33 32 31 36 42 47 47 46 45 38 35 46 51 49 41 22
24 25 26 26 30 31 33 35 37 35 37 38 37 37 35 39 37 36 35 34 35 37 36 36 37 37 37 32 32 33 34 40 40 46 50 45 40 40 45 36 31 30 10
21 23 25 26 28 30 31 33 34 33 35 37 40 41 41 44 46 44 41 36 36 37 37 36 37 40 40 34 35 34 32 40 33 32 38 43 41 42 42 48 40 34 29
25 28 28 28 29 32 34 33 35 37 39 40 42 45 45 44 48 50 47 42 38 37 36 36 34 34 35 37 39 37 41 34 33 32 35 36 41 39 43 48 45 43 35
24 26 29 31 31 30 31 34 32 32 34 36 38 41 41 40 41 45 46 45 44 42 41 39 36 33 33 33 34 40 43 37 31 29 29 32 35 37 37 40 40 40 35
28 29 28 28 29 29 30 31 31 28 29 30 30 31 34 35 37 40 43 42 43 43 42 40 39 36 34 35 36 38 39 37 32 28 30 32 34 31 27 29 29 32 30
29 28 28 28 29 28 27 28 29 28 29 29 29 31 34 35 35 35 37 36 40 37 36 41 35 32 32 35 34 35 37 34 33 32 28 28 25 28 30 31 29 31 24
27 28 28 28 28 30 29 29 30 31 32 34 34 35 33 32 32 38 40 37 34 39 39 34 28 27 25 26 30 30 33 32 30 32 27 25 27 28 29 30 27 27 25
27 27 29 29 29 30 31 31 32 35 37 39 41 43 43 45 48 46 44 44 43 42 40 35 29 23 22 20 22 23 27 29 30 29 27 28 28 28 26 24 24 27 21
28 31 30 29 28 28 29 30 29 35 37 39 39 40 41 44 43 42 41 40 39 38 35 31 29 27 25 19 20 20 21 27 28 26 28 28 28 29 30 27 26 25 21
29 30 28 28 28 29 29 31 32 31 29 34 40 37 39 39 38 37 36 34 30 29 28 25 26 24 27 19 21 23 22 22 25 23 24 27 31 32 31 28 28 26 23
29 26 25 27 28 30 30 30 30 31 31 33 36 39 37 32 33 33 32 28 25 23 25 26 28 28 29 22 24 25 25 23 25 26 28 30 31 31 28 26 24 25 23
26 25 25 25 27 27 27 28 29 28 29 28 28 30 33 28 26 27 26 25 23 24 27 28 24 26 22 22 24 25 22 24 24 24 25 26 25 27 25 25 25 24 22
26 26 25 24 24 25 26 26 28 27 26 26 26 28 32 26 24 21 21 22 22 26 24 24 19 20 20 24 24 22 22 21 22 23 24 25 26 23 23 24 24 23 24
27 22 23 23 24 25 26 26 26 25 25 25 26 26 27 22 22 22 22 23 26 25 22 11 9 8 12 19 21 22 21 21 22 23 24 25 25 26 26 25 25 23 22
23 24 22 22 22 24 24 24 24 24 25 24 24 24 24 23 23 23 23 24 25 25 22 18 17 17 14 15 17 21 23 21 24 28 27 26 26 25 25 24 24 22 21
21 22 21 20 21 22 22 23 23 24 24 24 24 23 24 24 24 24 24 25 25 23 21 20 18 15 13 13 12 13 17 21 24 26 29 28 26 26 24 23 22 21 21
19 21 22 20 20 20 22 22 23 23 23 24 24 25 25 25 26 26 26 26 27 27 25 23 21 18 16 13 12 13 14 16 20 23 26 28 28 27 25 24 23 21 20
18 20 21 21 22 20 20 20 21 23 23 24 24 24 25 25 26 27 28 28 28 28 27 26 24 23 21 18 15 14 15 16 21 22 25 27 27 25 24 23 22 20 18
Wind_Direction
20 18 19 17 17 17 23 14 6 3 3 2 357 346 332 315 297 282 270 265 259 256 253 250 248 244 241 239 234 233 231 227 210 207 219 220 213 214 218 222 220 217 222
5 359 2 7 9 10 14 5 355 350 351 352 352 351 343 328 317 299 288 277 267 260 257 254 252 251 245 240 236 233 229 230 224 185 195 198 209 214 219 218 215 217 218
355 351 349 350 352 349 345 344 337 333 335 337 338 339 339 336 326 309 294 285 280 270 264 259 255 251 247 242 237 231 230 227 226 222 193 198 202 208 209 215 217 218 220
344 342 340 338 338 338 331 329 328 330 328 327 328 325 323 324 323 320 309 292 283 276 272 266 261 255 250 243 239 235 230 228 223 221 207 191 198 200 203 196 207 219 223
328 330 329 331 331 329 327 325 324 323 322 317 317 315 312 313 310 311 308 303 294 283 276 271 267 262 257 250 242 239 230 222 221 221 216 192 191 176 194 197 204 209 221
317 319 320 321 322 321 320 319 316 313 313 310 308 306 302 303 301 296 291 289 290 286 278 274 270 265 261 257 251 245 237 223 223 221 222 212 203 199 192 191 193 193 214
297 299 306 310 312 313 313 311 306 305 307 303 297 294 291 289 287 289 287 284 280 274 272 273 271 263 259 257 257 252 244 237 232 229 228 224 210 199 192 192 197 202 213
296 297 299 298 298 299 298 296 295 296 297 294 291 289 289 286 284 282 281 279 277 275 271 269 266 267 261 254 249 249 250 246 239 231 233 235 227 217 205 205 202 203 210
306 305 305 304 301 299 295 292 290 288 288 290 290 291 289 285 285 284 281 277 272 270 269 267 265 262 262 254 246 242 240 243 244 242 238 239 234 229 214 199 192 180 188
312 313 311 309 305 303 301 298 295 292 287 285 284 283 285 285 286 284 282 278 272 266 266 263 261 260 260 253 247 241 239 240 237 239 244 238 236 229 219 206 195 195 196
309 307 307 306 304 301 299 296 294 291 289 286 284 283 281 280 283 284 283 277 268 267 264 262 258 254 254 253 248 241 238 242 237 231 230 229 228 228 217 207 208 206 199
311 308 306 305 303 301 297 296 294 291 288 286 285 283 281 281 280 283 284 280 275 267 260 258 257 256 255 256 253 248 244 240 232 225 222 218 222 221 214 207 209 203 209
313 310 307 304 302 299 297 296 295 292 287 286 285 286 287 287 287 287 287 285 281 277 270 260 256 259 261 260 257 253 243 236 225 223 225 220 216 218 212 200 198 195 198
311 309 308 305 303 299 295 293 292 292 289 288 288 285 284 282 282 284 285 289 295 295 280 263 259 258 261 258 256 251 237 229 223 220 225 220 207 200 198 189 190 179 167
310 308 308 307 303 301 296 292 290 286 284 285 284 283 285 284 283 283 281 278 273 279 286 284 256 249 251 255 249 244 225 224 220 219 214 202 196 194 195 194 192 185 182
307 310 306 303 302 300 299 297 294 294 295 293 292 291 291 287 291 290 288 283 279 275 272 272 272 262 238 241 249 236 215 217 219 217 204 196 194 189 178 178 179 181 180
305 303 303 302 301 300 300 299 298 299 299 297 296 295 293 293 295 293 289 286 281 273 263 263 259 258 260 237 238 222 219 220 221 213 198 194 180 174 168 171 172 182 179
305 300 299 300 300 299 299 298 298 298 300 301 301 300 298 297 299 297 293 289 281 271 272 265 258 259 259 224 217 220 222 215 212 205 189 173 173 171 174 179 183 180 176
305 302 303 303 301 300 301 301 300 299 298 298 300 302 302 301 301 298 295 284 271 257 252 256 255 247 252 207 213 216 215 197 188 180 177 177 178 175 179 179 177 174 171
309 308 313 312 310 310 310 308 307 308 308 309 315 316 318 302 297 295 294 279 271 249 245 242 273 227 209 209 210 208 193 181 177 174 171 170 170 170 166 163 164 161 163
315 316 320 319 317 316 317 318 316 315 317 319 319 325 331 336 321 325 332 334 328 322 252 240 243 217 213 205 189 181 171 168 167 164 160 158 158 156 158 158 156 156 148
326 320 322 320 322 323 324 323 325 326 327 327 328 333 344 345 343 344 345 348 351 357 35 76 113 153 173 174 163 150 146 147 149 151 149 147 146 147 148 149 148 145 144
336 331 330 331 330 327 330 332 335 338 336 337 338 343 351 354 354 354 354 359 12 25 36 53 69 82 105 127 142 150 147 146 151 152 144 143 143 145 148 147 145 143 144
338 341 337 339 337 337 337 336 340 345 348 349 352 356 0 3 4 5 8 12 22 35 48 58 67 77 91 104 123 145 157 162 163 158 153 144 140 140 139 139 140 140 141
350 354 358 349 343 345 344 346 347 349 355 359 0 3 5 9 14 15 19 25 35 42 48 55 62 68 75 87 102 118 132 152 156 158 154 146 139 139 135 134 137 140 143
358 1 4 6 3 354 349 348 351 355 357 360 4 7 9 12 18 22 26 35 41 49 56 60 64 71 73 78 90 112 128 142 147 152 151 147 142 139 143 145 150 149 155